Regional Weather Roundup
Issued by NWS

Home | Current Version | Previous Version | Graphics & Text | Print | Product List | Glossary Off
Versions: 1 2 3 4 5 6 7 8 9 10 11 12 13 14 15 16 17 18 19 20 21 22 23 24 25 26 27 28 29 30 31 32 33 34 35 36 37 38 39 40 41 42 43 44 45 46 47 48 49 50

000
ASUS43 KMKX 231011
RWRWI

WISCONSIN REGIONAL WEATHER ROUNDUP
NATIONAL WEATHER SERVICE MILWAUKEE/SULLIVAN WI
500 AM CDT SAT SEP 23 2017

NOTE: "FAIR" INDICATES FEW OR NO CLOUDS BELOW 12,000 FEET WITH NO
SIGNIFICANT WEATHER AND/OR OBSTRUCTIONS TO VISIBILITY.

WIZ001-002-006>008-014>016-023>028-231100-
NORTHWEST WISCONSIN

CITY           SKY/WX    TMP DP  RH WIND       PRES   REMARKS
SUPERIOR ARPT  MOCLDY    62  62  99 CALM      29.87R
ASHLAND        CLOUDY    76  67  73 SW16G25   29.89R
HAYWARD        MOCLDY    73  66  78 S7        29.94R
SIREN          CLOUDY    73  66  78 S3        29.92R
CUMBERLAND     CLOUDY    70  64  83 S5        29.95R
RICE LAKE      CLOUDY    70  65  85 SE3       29.96R
CHETEK           N/A     69  66  91 E3        29.95R
LADYSMITH      MOCLDY    72  66  83 S5        29.99R
EAU CLAIRE     CLEAR     71  65  81 S5        29.95R
MENOMONIE      CLEAR     71  65  83 SE5       29.94R
NEW RICHMOND   MOCLDY    73  65  74 S6        29.93R
OSCEOLA        CLOUDY    75  66  74 SE6       29.94R
$$

WIZ003>005-009-010-017-018-231100-
NORTH CENTRAL WISCONSIN

CITY           SKY/WX    TMP DP  RH WIND       PRES   REMARKS
MANITOWISH WTR NOT AVBL
ARBOR VITAE    CLOUDY    72  69  90 S3        30.00R
WOODRUFF       CLOUDY    72  69  90 S3        30.00R
RHINELANDER    CLEAR     69  66  90 SW5       30.02R
EAGLE RIVER    CLEAR     64  64 100 CALM      30.01R
LAND O LAKES   CLEAR     66  65  97 S6        30.01S
PHILLIPS       PTCLDY    70  67  91 S6        29.98R
TOMAHAWK       PTCLDY    64  62  96 CALM      30.02R
MEDFORD        PTCLDY    63  62  96 SE5       30.01R
MERRILL        CLOUDY    69  66  88 S5        30.02R
$$

WIZ029-030-035-036-043>047-231100-
CENTRAL WISCONSIN

CITY           SKY/WX    TMP DP  RH WIND       PRES   REMARKS
WAUSAU         CLOUDY    71  64  78 S3        30.00R
MOSINEE        CLOUDY    66  63  88 SE5       30.03R
MARSHFIELD     PTCLDY    68  62  81 S5        30.01R
STEVENS POINT  PTCLDY    69  64  82 S7        30.01S
WAUPACA        CLEAR     66  65  96 CALM      30.02R
WAUTOMA        CLEAR     62  61  96 CALM      30.03R
WISC RAPIDS    MOCLDY    72  64  76 S7        30.01R
CAMP DOUGLAS   PTCLDY    64  64  98 CALM      30.00R
$$

WIZ011>013-019>022-031-037>040-048>050-231100-
NORTHEAST WISCONSIN

CITY           SKY/WX    TMP DP  RH WIND       PRES   REMARKS
ANTIGO         CLEAR     64  62  95 S5        30.04R
SHAWANO        CLEAR     70  65  84 CALM      30.01R
OCONTO         CLEAR     62  62  97 CALM      30.00S
STURGEON BAY   CLEAR     72  64  76 S7        30.02R
GREEN BAY      CLEAR     67  65  93 S3        30.01R
MANITOWOC      CLEAR     73  65  75 SW3       30.03R
APPLETON       CLEAR     70  59  68 S6        30.01S
CLINTONVILLE   CLEAR     66  63  88 CALM      30.02R
OSHKOSH        CLEAR     70  64  81 S8        30.02R
$$

WIZ032>034-041-042-053>061-231100-
SOUTHWEST WISCONSIN

CITY           SKY/WX    TMP DP  RH WIND       PRES   REMARKS
LA CROSSE      CLEAR     76  66  71 S7        29.96R
SPARTA         CLEAR     74  64  72 S6        29.99R
VIROQUA        CLEAR     70  65  84 S6        30.02R
BOSCOBEL       CLEAR     67  64  90 CALM      30.00R
PRAIRIE DU CHI CLEAR     70  62  74 E3        29.99S
PLATTEVILLE    CLEAR     68  66  93 SE5       30.03R
$$

WIZ056-057-062-063-064-067-068-231100-
SOUTH CENTRAL WISCONSIN

CITY           SKY/WX    TMP DP  RH WIND       PRES   REMARKS
REEDSBURG      PTCLDY    70  65  83 CALM      30.02R
BARABOO/DELLS  PTCLDY    67  62  82 S5        30.02S
LONE ROCK      PTCLDY    63  63 100 CALM      30.01R
MINERAL POINT  PTCLDY    70  66  88 S5        30.04R
MADISON        CLEAR     67  63  87 CALM      30.03R
MIDDLETON      CLEAR     69  63  79 CALM      30.03S
WATERTOWN      CLEAR     66  66  99 CALM      30.03S
MONROE         CLEAR     70  63  78 S9        30.04S
JANESVILLE     CLEAR     66  66 100 CALM      30.03S
$$

WIZ051-052-058>065-066-070>072-231100-
SOUTHEAST WISCONSIN

CITY           SKY/WX    TMP DP  RH WIND       PRES   REMARKS
MILWAUKEE      CLEAR     74  66  76 SW6       30.04R
WAUKESHA       CLEAR     70  63  78 S3        30.06R
MILWAUKEE/TIMM CLEAR     68  61  77 CALM      30.05R
RACINE         CLEAR     75  66  73 SW7       30.05R
BURLINGTON     CLEAR     63  63 100 CALM      30.05R
KENOSHA        CLEAR     67  65  93 W6        30.04S
FOND DU LAC    CLEAR     72  63  73 S6        30.03R
SHEBOYGAN      CLEAR     65  65 100 S5        30.03R
WEST BEND        N/A     64  63  94 CALM      30.04S
JUNEAU         CLEAR     68  63  83 CALM      30.05R
$$

LSZ147-162-231100-
LAKE SUPERIOR

STATION/POSITION TIME  TEMP    WIND        PRES    WAVE
                       AIR SEA DIR/SP/G            HT/PER
                 (UTC) (F)     (DEG/KT/KT) (MB)    (FT/S)
W MID LAKE BUOY  0950   63 54  220/ 14/ 16 1010.1R   2/ 4
DEVILS ISLAND    1000   71     320/  5/  6 1011.1R
SAXON HARBOR     0940   80     200/ 14/ 22 1010.8R
$$

LMZ867-665-643>646-231100-
LAKE MICHIGAN

STATION/POSITION TIME  TEMP    WIND        PRES    WAVE
                       AIR SEA DIR/SP/G            HT/PER
                 (UTC) (F)     (DEG/KT/KT) (MB)    (FT/S)
S GREEN BAY BUOY 1000   69 67  200/  6/  6 1015.9R
N MID LAKE BUOY  0950   69 66  190/ 10/ 12 1016.2R   2/ 4
NORTHPORT PIER   0940   67     160/  2/  5 1015.6R
KEWAUNEE LAKESHO 0948   74     230/  3/  7 1015.5R
SHEBOYGAN LAKESH 1000   72     190/  3/  3 1016.4R
PORT WASHINGTON  0940   72     260/  3/  4 1017.6R
ATWATER BUOY     0909   74 65  200/  6/  8 1017.1
MILWAUKEE LAKESH 0950   75     150/  6/  7   N/A
S MID LAKE BUOY  0950   72 70  150/  6/  6 1017.3R   0
KENOSHA   LAKESH 1000   77     240/  7/  9 1016.9
$$

TC  - TEMPERATURE IN CELSIUS
VSB - VISIBILITY IN STATUTE MILES
WCI - WIND CHILL INDEX
HX  - HEAT INDEX





USA.gov is the U.S. government's official web portal to all federal, state and local government web resources and services.